TITAN 3A TRANSTAGE R/B

基本信息
目录编号:
1359
目录名称:
TITAN 3A TRANSTAGE R/B
国际标识:
1965-034A
轨道中心:
EARTH
物体状态:
在轨
发射日期:
1965-05-06 UTC
国别:
美国 (US)
轨道信息
数据来源: 国际轨道数据
星历时间: 2026-07-14T10:25:52+0800
半长轴: 9640.818km
偏心率: 0.0495545
轨道倾角: 32.117°
近地点辐角: 111.686°
升交点赤经: 197.364°
平近点角: 253.710°
近地点: 2784.935km
远地点: 3740.427km
周期: 157.011分钟
每日圈数: 9.171323
详细信息
发射场:
AFETR
轨道高度:
MEO
数据来源:
AOE Integration Group
参考系:
TEME
时间系统:
UTC
历元类型:
SGP4
2D轨道图
3D轨道图
轨道高度分析图
轨道倾角分析图
轨道综合分析图
查看轨道综合分析图